Time,TemperatureF,DewpointF,PressureIn,WindDirection,WindDirectionDegrees,WindSpeedMPH,WindSpeedGustMPH,Humidity,HourlyPrecipIn,Conditions,Clouds,dailyrainin,SoftwareType,DateUTC
2013-06-22 10:12:00,70.0,-99.9,-100.00,ENE,74,5.0,-999.0,0,-99.99,,,-99.99,,2013-06-22 15:12:00,
2013-06-22 10:22:00,70.0,-99.9,-100.00,ENE,74,5.0,-999.0,0,-99.99,,,-99.99,,2013-06-22 15:22:00,
2013-06-22 10:53:00,72.0,-99.9,-100.00,ESE,104,12.0,-999.0,0,-99.99,,,-99.99,,2013-06-22 15:53:00,
2013-06-22 11:12:00,71.0,-99.9,-100.00,SE,135,13.0,-999.0,0,-99.99,,,-99.99,,2013-06-22 16:12:00,
2013-06-22 11:43:00,72.0,-99.9,-100.00,SE,142,13.0,-999.0,0,-99.99,,,-99.99,,2013-06-22 16:43:00,
2013-06-22 11:52:00,72.0,-99.9,-100.00,ESE,105,9.0,-999.0,0,-99.99,,,-99.99,,2013-06-22 16:52:00,
2013-06-22 12:43:00,74.0,-99.9,-100.00,SSE,164,10.0,-999.0,0,-99.99,,,-99.99,,2013-06-22 17:43:00,
2013-06-22 13:02:00,74.0,-99.9,-100.00,South,178,7.0,-999.0,0,-99.99,,,-99.99,,2013-06-22 18:02:00,
2013-06-22 13:12:00,75.0,-99.9,-100.00,SW,216,9.0,-999.0,0,-99.99,,,-99.99,,2013-06-22 18:12:00,
2013-06-22 13:43:00,76.0,-99.9,-100.00,SW,223,6.0,-999.0,0,-99.99,,,-99.99,,2013-06-22 18:43:00,
2013-06-22 13:52:00,76.0,-99.9,-100.00,SW,221,4.0,-999.0,0,-99.99,,,-99.99,,2013-06-22 18:52:00,
2013-06-22 14:12:00,76.0,-99.9,-100.00,SW,228,8.0,-999.0,0,-99.99,,,-99.99,,2013-06-22 19:12:00,
2013-06-22 14:22:00,76.0,-99.9,-100.00,SW,228,8.0,-999.0,0,-99.99,,,-99.99,,2013-06-22 19:22:00,
2013-06-22 14:43:00,76.0,-99.9,-100.00,West,265,5.0,-999.0,0,-99.99,,,-99.99,,2013-06-22 19:43:00,
2013-06-22 14:53:00,76.0,-99.9,-100.00,WNW,291,4.0,-999.0,0,-99.99,,,-99.99,,2013-06-22 19:53:00,
2013-06-22 15:11:00,76.0,-99.9,-100.00,NNW,337,4.0,-999.0,0,-99.99,,,-99.99,,2013-06-22 20:11:00,
2013-06-22 15:43:00,76.0,-99.9,-100.00,West,278,2.0,-999.0,0,-99.99,,,-99.99,,2013-06-22 20:43:00,
2013-06-22 16:12:00,76.0,-99.9,-100.00,NNW,335,4.0,-999.0,0,-99.99,,,-99.99,,2013-06-22 21:12:00,
2013-06-22 16:53:00,76.0,-99.9,-100.00,NE,54,3.0,-999.0,0,-99.99,,,-99.99,,2013-06-22 21:53:00,
2013-06-22 17:12:00,76.0,-99.9,-100.00,ENE,77,3.0,-999.0,0,-99.99,,,-99.99,,2013-06-22 22:12:00,
2013-06-22 17:43:00,76.0,-99.9,-100.00,ENE,67,4.0,-999.0,0,-99.99,,,-99.99,,2013-06-22 22:43:00,
2013-06-22 17:52:00,76.0,-99.9,-100.00,ENE,70,5.0,-999.0,0,-99.99,,,-99.99,,2013-06-22 22:52:00,
2013-06-22 18:11:00,76.0,-99.9,-100.00,ENE,66,5.0,-999.0,0,-99.99,,,-99.99,,2013-06-22 23:11:00,
2013-06-22 18:43:00,76.0,-99.9,-100.00,ENE,78,8.0,-999.0,0,-99.99,,,-99.99,,2013-06-22 23:43:00,
2013-06-22 19:11:00,76.0,-99.9,-100.00,East,90,5.0,-999.0,0,-99.99,,,-99.99,,2013-06-23 00:11:00,
2013-06-22 19:34:00,76.0,-99.9,-100.00,East,79,5.0,-999.0,0,-99.99,,,-99.99,,2013-06-23 00:34:00,
2013-06-22 19:53:00,75.0,-99.9,-100.00,East,94,7.0,-999.0,0,-99.99,,,-99.99,,2013-06-23 00:53:00,
2013-06-22 20:12:00,75.0,-99.9,-100.00,ESE,109,6.0,-999.0,0,-99.99,,,-99.99,,2013-06-23 01:12:00,
2013-06-22 20:32:00,74.0,-99.9,-100.00,ENE,75,5.0,-999.0,0,-99.99,,,-99.99,,2013-06-23 01:32:00,
2013-06-22 20:42:00,74.0,-99.9,-100.00,ESE,105,10.0,-999.0,0,-99.99,,,-99.99,,2013-06-23 01:42:00,
2013-06-22 20:52:00,74.0,-99.9,-100.00,ESE,118,7.0,-999.0,0,-99.99,,,-99.99,,2013-06-23 01:52:00,
2013-06-22 21:11:00,74.0,-99.9,-100.00,ESE,123,12.0,-999.0,0,-99.99,,,-99.99,,2013-06-23 02:11:00,
2013-06-22 21:41:00,74.0,-99.9,-100.00,ESE,113,7.0,-999.0,0,-99.99,,,-99.99,,2013-06-23 02:41:00,
2013-06-22 21:52:00,73.0,-99.9,-100.00,East,101,8.0,-999.0,0,-99.99,,,-99.99,,2013-06-23 02:52:00,
2013-06-22 22:01:00,72.0,-99.9,-100.00,ENE,73,4.0,-999.0,0,-99.99,,,-99.99,,2013-06-23 03:01:00,
2013-06-22 22:11:00,72.0,-99.9,-100.00,ESE,105,5.0,-999.0,0,-99.99,,,-99.99,,2013-06-23 03:11:00,
2013-06-22 22:31:00,72.0,-99.9,-100.00,East,90,5.0,-999.0,0,-99.99,,,-99.99,,2013-06-23 03:31:00,
2013-06-22 22:52:00,71.0,-99.9,-100.00,East,86,9.0,-999.0,0,-99.99,,,-99.99,,2013-06-23 03:52:00,
2013-06-22 23:01:00,72.0,-99.9,-100.00,ESE,116,18.0,-999.0,0,-99.99,,,-99.99,,2013-06-23 04:01:00,
2013-06-22 23:11:00,72.0,-99.9,-100.00,East,95,15.0,-999.0,0,-99.99,,,-99.99,,2013-06-23 04:11:00,
2013-06-22 23:31:00,72.0,-99.9,-100.00,NE,56,11.0,-999.0,0,-99.99,,,-99.99,,2013-06-23 04:31:00,
2013-06-22 23:42:00,72.0,-99.9,-100.00,East,85,14.0,-999.0,0,-99.99,,,-99.99,,2013-06-23 04:42:00,
2013-06-22 23:52:00,71.0,-99.9,-100.00,East,94,11.0,-999.0,0,-99.99,,,-99.99,,2013-06-23 04:52:00,